| time (UTC) | temp F | wind direction | speed MPH | gust MPH | rain 1hr in | rain 24hr in | rain mn in | humidity % | barometer mb |
| 20260831043019 | 72 | 301 | 0.0 | 0.0 | 0.00 | 0.03 | 0.03 | 95 | 1019.3 |
| 20260831041502 | 72 | 302 | 0.0 | 0.0 | 0.00 | 0.03 | 0.03 | 95 | 1019.4 |
| 20260831040101 | 73 | 302 | 0.0 | 0.0 | 0.00 | 0.03 | 0.03 | 95 | 1019.4 |
| 20260831040006 | 73 | 301 | 0.0 | 0.0 | 0.00 | 0.03 | 0.03 | 95 | 1019.4 |
| 20260831034501 | 72 | 301 | 0.0 | 0.0 | 0.00 | 0.03 | 0.03 | 95 | 1019.5 |
| 20260831033107 | 73 | 301 | 0.0 | 1.0 | 0.00 | 0.03 | 0.03 | 95 | 1019.5 |
| 20260831031529 | 73 | 301 | 0.0 | 0.0 | 0.00 | 0.03 | 0.03 | 95 | 1019.6 |
| 20260831030030 | 73 | 301 | 0.0 | 0.0 | 0.01 | 0.03 | 0.03 | 95 | 1019.6 |
| 20260831024541 | 73 | 301 | 0.0 | 0.0 | 0.01 | 0.03 | 0.03 | 95 | 1019.6 |
| 20260831023029 | 73 | 301 | 0.0 | 0.0 | 0.01 | 0.03 | 0.03 | 95 | 1019.6 |
| 20260831021524 | 73 | 301 | 0.0 | 0.0 | 0.01 | 0.03 | 0.03 | 94 | 1019.6 |
| 20260831020024 | 73 | 301 | 0.0 | 0.0 | 0.00 | 0.02 | 0.02 | 94 | 1019.6 |
| 20260831014528 | 73 | 301 | 0.0 | 1.0 | 0.00 | 0.02 | 0.02 | 94 | 1019.6 |
| 20260831013020 | 73 | 15 | 0.0 | 1.0 | 0.00 | 0.02 | 0.02 | 94 | 1019.7 |
| 20260831011530 | 73 | 15 | 0.0 | 0.0 | 0.00 | 0.02 | 0.02 | 94 | 1019.4 |
| 20260831010020 | 73 | 15 | 0.0 | 0.0 | 0.00 | 0.02 | 0.02 | 94 | 1019.3 |
| 20260831004548 | 73 | 15 | 0.0 | 1.0 | 0.00 | 0.02 | 0.02 | 94 | 1019.1 |
| 20260831003047 | 73 | 15 | 0.0 | 0.0 | 0.00 | 0.02 | 0.02 | 94 | 1019.2 |
| 20260831001515 | 74 | 15 | 0.0 | 1.0 | 0.00 | 0.02 | 0.02 | 94 | 1019.0 |
| 20260831000013 | 74 | 319 | 0.0 | 1.0 | 0.00 | 0.02 | 0.02 | 94 | 1019.0 |
| 20260830234520 | 74 | 315 | 0.0 | 2.0 | 0.00 | 0.02 | 0.02 | 93 | 1019.0 |
| 20260830233017 | 74 | 352 | 0.0 | 1.0 | 0.00 | 0.02 | 0.02 | 93 | 1018.9 |
| 20260830231603 | 74 | 352 | 0.0 | 1.0 | 0.00 | 0.02 | 0.02 | 93 | 1018.8 |
| 20260830230056 | 74 | 304 | 0.0 | 2.0 | 0.01 | 0.02 | 0.02 | 93 | 1019.1 |
| 20260830224525 | 74 | 9 | 0.0 | 1.0 | 0.02 | 0.02 | 0.02 | 93 | 1019.3 |
| 20260830223020 | 74 | 299 | 0.0 | 1.0 | 0.02 | 0.02 | 0.02 | 92 | 1019.8 |
| 20260830221543 | 74 | 313 | 0.0 | 2.0 | 0.02 | 0.02 | 0.02 | 92 | 1020.0 |
| 20260830220059 | 74 | 27 | 0.0 | 3.0 | 0.01 | 0.01 | 0.01 | 92 | 1020.1 |
| 20260830214542 | 75 | 302 | 1.0 | 3.0 | 0.00 | 0.00 | 0.00 | 91 | 1019.9 |
| 20260830213039 | 75 | 317 | 0.0 | 3.0 | 0.00 | 0.00 | 0.00 | 90 | 1020.0 |
| 20260830211557 | 76 | 333 | 0.0 | 3.0 | 0.00 | 0.00 | 0.00 | 88 | 1019.9 |
| 20260830210012 | 76 | 332 | 0.0 | 2.0 | 0.00 | 0.00 | 0.00 | 87 | 1020.0 |
| 20260830204516 | 76 | 67 | 0.0 | 1.0 | 0.00 | 0.00 | 0.00 | 87 | 1020.0 |
| 20260830203019 | 77 | 96 | 0.0 | 6.0 | 0.00 | 0.00 | 0.00 | 87 | 1020.0 |
| 20260830201613 | 77 | 102 | 1.0 | 6.0 | 0.00 | 0.00 | 0.00 | 86 | 1020.3 |
| 20260830200012 | 80 | 75 | 3.0 | 12.0 | 0.00 | 0.00 | 0.00 | 83 | 1020.2 |
| 20260830194510 | 83 | 130 | 3.0 | 9.0 | 0.00 | 0.00 | 0.00 | 81 | 1019.9 |
| 20260830193011 | 84 | 110 | 2.0 | 9.0 | 0.00 | 0.00 | 0.00 | 80 | 1019.2 |
| 20260830191512 | 86 | 233 | 1.0 | 11.0 | 0.00 | 0.00 | 0.00 | 77 | 1019.1 |
| 20260830190059 | 87 | 122 | 3.0 | 11.0 | 0.00 | 0.00 | 0.00 | 76 | 1019.3 |
| 20260830184557 | 86 | 197 | 1.0 | 7.0 | 0.00 | 0.00 | 0.00 | 77 | 1019.5 |
| 20260830183026 | 86 | 121 | 0.0 | 4.0 | 0.00 | 0.00 | 0.00 | 75 | 1019.5 |
| 20260830181526 | 87 | 250 | 0.0 | 2.0 | 0.00 | 0.00 | 0.00 | 74 | 1019.6 |
| 20260830180101 | 88 | 147 | 0.0 | 3.0 | 0.00 | 0.00 | 0.00 | 68 | 1019.8 |
| 20260830174558 | 88 | 20 | 0.0 | 2.0 | 0.00 | 0.00 | 0.00 | 68 | 1019.9 |
| 20260830173028 | 87 | 104 | 0.0 | 2.0 | 0.00 | 0.00 | 0.00 | 71 | 1020.3 |
| 20260830171521 | 86 | 231 | 0.0 | 2.0 | 0.00 | 0.00 | 0.00 | 72 | 1020.4 |
| 20260830170051 | 87 | 120 | 1.0 | 4.0 | 0.00 | 0.00 | 0.00 | 69 | 1020.5 |
| 20260830164548 | 88 | 110 | 0.0 | 4.0 | 0.00 | 0.00 | 0.00 | 69 | 1020.5 |
| 20260830163020 | 87 | 248 | 0.0 | 4.0 | 0.00 | 0.00 | 0.00 | 69 | 1020.8 |
| 20260830161510 | 87 | 11 | 0.0 | 5.0 | 0.00 | 0.00 | 0.00 | 71 | 1021.1 |
| 20260830160011 | 86 | 125 | 0.0 | 6.0 | 0.00 | 0.02 | 0.00 | 73 | 1021.2 |
| 20260830154502 | 86 | 298 | 1.0 | 4.0 | 0.00 | 0.02 | 0.00 | 77 | 1021.0 |
| 20260830153059 | 85 | 106 | 1.0 | 6.0 | 0.00 | 0.02 | 0.00 | 76 | 1021.1 |
| 20260830151604 | 84 | 306 | 1.0 | 5.0 | 0.00 | 0.02 | 0.00 | 80 | 1021.4 |
| 20260830150030 | 82 | 314 | 0.0 | 3.0 | 0.00 | 0.05 | 0.00 | 82 | 1021.5 |
| 20260830144533 | 83 | 331 | 1.0 | 4.0 | 0.00 | 0.05 | 0.00 | 82 | 1021.5 |
| 20260830143056 | 82 | 349 | 0.0 | 1.0 | 0.00 | 0.05 | 0.00 | 82 | 1021.7 |
| 20260830141555 | 82 | 77 | 0.0 | 3.0 | 0.00 | 0.05 | 0.00 | 84 | 1021.6 |
| 20260830140020 | 82 | 123 | 0.0 | 4.0 | 0.00 | 0.07 | 0.00 | 85 | 1021.5 |
| 20260830134517 | 82 | 20 | 0.0 | 3.0 | 0.00 | 0.07 | 0.00 | 86 | 1021.5 |
| 20260830133100 | 81 | 272 | 1.0 | 4.0 | 0.00 | 0.07 | 0.00 | 88 | 1021.4 |
| 20260830131539 | 79 | 333 | 0.0 | 3.0 | 0.00 | 0.07 | 0.00 | 93 | 1021.3 |
| 20260830130020 | 78 | 285 | 0.0 | 6.0 | 0.00 | 0.07 | 0.00 | 94 | 1021.3 |
| 20260830124509 | 77 | 348 | 0.0 | 3.0 | 0.00 | 0.07 | 0.00 | 95 | 1021.4 |
| 20260830123059 | 76 | 347 | 0.0 | 1.0 | 0.00 | 0.07 | 0.00 | 96 | 1021.4 |
| 20260830121549 | 75 | 311 | 0.0 | 1.0 | 0.00 | 0.07 | 0.00 | 96 | 1021.2 |
| 20260830120049 | 74 | 311 | 0.0 | 1.0 | 0.00 | 0.11 | 0.00 | 96 | 1021.1 |
| 20260830114543 | 74 | 334 | 0.0 | 1.0 | 0.00 | 0.11 | 0.00 | 96 | 1021.2 |
| 20260830113026 | 73 | 309 | 0.0 | 1.0 | 0.00 | 0.11 | 0.00 | 96 | 1021.3 |
| 20260830111516 | 72 | 316 | 0.0 | 0.0 | 0.00 | 0.11 | 0.00 | 96 | 1021.5 |
| 20260830110016 | 72 | 316 | 0.0 | 0.0 | 0.00 | 0.11 | 0.00 | 96 | 1021.3 |
| 20260830104511 | 72 | 316 | 0.0 | 0.0 | 0.00 | 0.11 | 0.00 | 96 | 1021.1 |
| 20260830103011 | 72 | 316 | 0.0 | 0.0 | 0.00 | 0.11 | 0.00 | 96 | 1021.2 |
| 20260830101510 | 72 | 316 | 0.0 | 0.0 | 0.00 | 0.11 | 0.00 | 96 | 1021.1 |
| 20260830100018 | 72 | 316 | 0.0 | 0.0 | 0.00 | 0.15 | 0.00 | 95 | 1021.0 |
| 20260830094542 | 72 | 316 | 0.0 | 0.0 | 0.00 | 0.15 | 0.00 | 96 | 1021.1 |
| 20260830093038 | 72 | 316 | 0.0 | 0.0 | 0.00 | 0.15 | 0.00 | 96 | 1021.1 |
| 20260830091508 | 72 | 319 | 0.0 | 0.0 | 0.00 | 0.15 | 0.00 | 96 | 1020.8 |
| 20260830090008 | 72 | 318 | 0.0 | 2.0 | 0.00 | 0.15 | 0.00 | 96 | 1020.5 |
| 20260830084536 | 71 | 341 | 0.0 | 1.0 | 0.00 | 0.15 | 0.00 | 95 | 1020.6 |
| 20260830083035 | 71 | 341 | 0.0 | 0.0 | 0.00 | 0.15 | 0.00 | 96 | 1020.5 |
| 20260830081507 | 71 | 341 | 0.0 | 0.0 | 0.00 | 0.15 | 0.00 | 95 | 1020.3 |
| 20260830080005 | 71 | 341 | 0.0 | 0.0 | 0.00 | 0.15 | 0.00 | 95 | 1020.3 |
| 20260830074633 | 71 | 341 | 0.0 | 0.0 | 0.00 | 0.15 | 0.00 | 95 | 1020.3 |
| 20260830073036 | 71 | 341 | 0.0 | 0.0 | 0.00 | 0.15 | 0.00 | 95 | 1020.4 |
| 20260830071525 | 72 | 341 | 0.0 | 0.0 | 0.00 | 0.15 | 0.00 | 95 | 1020.6 |
| 20260830070022 | 72 | 341 | 0.0 | 1.0 | 0.00 | 0.15 | 0.00 | 95 | 1020.9 |
| 20260830064622 | 72 | 341 | 0.0 | 1.0 | 0.00 | 0.15 | 0.00 | 95 | 1020.8 |
| 20260830063022 | 72 | 15 | 0.0 | 1.0 | 0.00 | 0.15 | 0.00 | 95 | 1020.9 |
| 20260830061503 | 72 | 15 | 0.0 | 0.0 | 0.00 | 0.15 | 0.00 | 95 | 1021.2 |
| 20260830060059 | 72 | 15 | 0.0 | 0.0 | 0.00 | 0.15 | 0.00 | 95 | 1021.3 |
| 20260830054607 | 72 | 15 | 0.0 | 1.0 | 0.00 | 0.15 | 0.00 | 95 | 1021.5 |
| 20260830053056 | 73 | 332 | 0.0 | 3.0 | 0.00 | 0.15 | 0.00 | 95 | 1021.7 |
| 20260830051552 | 73 | 107 | 0.0 | 0.0 | 0.00 | 0.15 | 0.00 | 94 | 1021.6 |
| 20260830050106 | 73 | 109 | 0.0 | 0.0 | 0.00 | 0.15 | 0.15 | 94 | 1021.8 |
| 20260830044549 | 73 | 109 | 0.0 | 0.0 | 0.00 | 0.15 | 0.15 | 94 | 1021.9 |